Location: Cambroso
(45.2833°N, 12.0850°E)
Time: 16:18:05
(UTC+00:00)

COSMOS 2406 - Pass Details

Date: 21 January 2021
Orbit: 841 x 866 km, 71.0° (Epoch: 25 February)

Event Time Altitude Azimuth Distance (km) Brightness Sun altitude
Rises 18:58:00 0° 333° (NNW) 3,458 6.7 -30.4°
Reaches altitude 10° 19:00:28 10° 333° (NNW) 2,517 6.0 -30.8°
Enters shadow 19:04:31 47° 331° (NNW) 1,132 3.9 -31.6°
